Regional Weather Roundup
Issued by NWS

Home | Current Version | Previous Version | Graphics & Text | Print | Product List | Glossary On
Versions: 1 2 3 4 5 6 7 8 9 10 11 12 13 14 15 16 17 18 19 20 21 22 23 24 25 26 27 28 29 30 31 32 33 34 35 36 37 38 39 40 41 42 43 44 45 46 47 48
000
ASUS45 KCYS 280310
RWRWY

WYOMING REGIONAL WEATHER ROUNDUP
NATIONAL WEATHER SERVICE CHEYENNE WY
800 PM MST THU NOV 27 2014

NOTE:  "FAIR" INDICATES FEW OR NO CLOUDS BELOW 12,000 FEET
WITH NO SIGNIFICANT WEATHER AND/OR OBSTRUCTIONS TO VISIBILITY.

WYZ001-280400-
YELLOWSTONE NATIONAL PARK

CITY           SKY/WX    TMP DP  RH WIND       PRES   REMARKS
LK YELLOWSTONE   N/A     34  26  72 VRB5      30.13F WCI  30
W YELLOWSTONE  NOT AVBL

$$
WYZ002>013-054>058-071-098>099-280400-
NORTHERN WYOMING

CITY           SKY/WX    TMP DP  RH WIND       PRES   REMARKS
JACKSON        CLOUDY    39  30  70 SW9       30.13  WCI  33
CODY           MOCLDY    52  28  40 S14G29    29.92F
GREYBULL       CLOUDY    24  22  91 SE3       29.93F
WORLAND        MOCLDY    26  24  92 E7        29.93F WCI  18
SHERIDAN       MOCLDY    42  27  55 CALM      29.85S
BUFFALO        CLOUDY    40  26  57 W8        29.89F WCI  34
GILLETTE       PTCLDY    45  29  53 SW13      29.89F
HULETT           N/A    N/A N/A N/A MISG        N/A
NEWCASTLE      FAIR      32  27  80 MISG      29.95F

$$
WYZ014>020-022>026-101>103-280400-
CENTRAL WYOMING

CITY           SKY/WX    TMP DP  RH WIND       PRES   REMARKS
BIG PINEY      PTCLDY   N/A N/A N/A E8        30.20S
PINEDALE       CLOUDY    23  21  93 W6        30.21S WCI  16
DUBOIS         FAIR      41  23  48 NW17G24   30.08F
LANDER         PTCLDY    45  24  43 NW3       30.00F
RIVERTON       CLEAR     46  26  45 CALM      30.03F
CASPER         PTCLDY    42  26  53 W7        30.04F
DOUGLAS        MOCLDY    46  26  45 CALM      30.00F

$$
WYZ021-027>030-104>119-280400-
SOUTHERN WYOMING

CITY           SKY/WX    TMP DP  RH WIND       PRES   REMARKS
EVANSTON       MOCLDY    42  20  41 SW10      30.23F
FORT BRIDGER   FAIR      42  23  47 W8        30.24F
ROCK SPRINGS   PTCLDY    38  22  52 SW14      30.18F WCI  30
DIXON          FAIR      39  25  56 W3        30.25F
RAWLINS        CLEAR     42  20  41 W9G20     30.18S
SARATOGA       FAIR      36  23  60 S9        30.22F WCI  29
LARAMIE        PTCLDY    39  20  46 SW13      30.18F WCI  31
CHEYENNE       CLEAR     49  21  33 W35G41    30.07F
TORRINGTON     CLEAR     53  26  35 W22G29    29.97F
PINE BLUFFS    FAIR      46  25  42 W14       30.04S

$$


USA.gov is the U.S. government's official web portal to all federal, state and local government web resources and services.